{"data":{"norad_id":60338,"intl_designator":"2024-136K","name":"STARLINK-32078","alt_names":[],"object_type":"PAYLOAD","status":"ACTIVE","operator":null,"country":"US","launch_date":"2024-08-02","launch_site_code":"AFETR","launch_vehicle":null,"mission":null,"orbit_class":"UNKNOWN","rcs_meters":null,"size_class":null,"mass_kg":null,"dimensions":null,"purposes":["comms"],"wikipedia_slug":null,"has_3d_model":false,"image_url":null,"decayed_at":null,"tle_current":{"epoch":"2026-05-25T02:33:57.085344Z","epoch_age_seconds":55946,"freshness":"FRESH","line1":"1 60338U 24136K   26145.10691071  .00000049  00000+0  13797-4 0  9992","line2":"2 60338  53.1609  80.7683 0001306  94.4374 265.6776 15.30195083101364","mean_motion":15.30195083,"eccentricity":0.0001306,"inclination_deg":53.1609,"raan_deg":80.7683,"arg_perigee_deg":94.4374,"mean_anomaly_deg":265.6776,"bstar":1.3797e-5,"rev_number":10136,"period_min":94.105648096636,"perigee_km":474.3347010367,"apogee_km":476.12480043199,"semimajor_km":6853.3667507343,"source":"CELESTRAK","updated_at":"2026-05-25T13:38:19.234392Z"}}}